RH
83 83 83 84 84 83 82 82 81 80 79 79 80 80 80 81 82 82 82 82 81 80 79 78 77 77 78 79 79 79 77 75 71 66 60 53 42 28 15 11 9 11 14 20 26 33 37 42 46 52 56 60 64 69 74 79 83 85 85 84 82 81 82 82 82 82 82 82 82 82 82 81 81 81 82 82 82 81 82 82 82 82 81 81 81 81 82 82 82 82 82 83 83 83 83 82 82 82 82 82 82 83 83
83 83 83 84 84 84 83 83 82 80 79 78 79 79 80 81 81 82 81 81 81 80 79 78 78 76 74 76 78 78 77 75 71 67 62 54 43 29 12 6 5 7 10 15 20 26 30 34 39 44 48 53 58 63 70 77 81 84 85 84 83 82 82 82 82 81 82 82 82 82 82 82 81 81 81 82 82 82 82 82 83 82 81 81 82 82 82 82 82 82 82 83 83 83 83 83 82 82 82 82 83 83 83
83 83 83 84 84 84 84 83 82 81 78 78 78 78 79 81 81 81 80 80 80 80 79 78 77 76 76 75 77 77 76 74 72 69 64 56 44 29 14 6 4 4 5 8 11 15 18 24 28 33 37 44 50 57 64 73 78 82 84 84 83 82 82 82 82 82 82 82 81 82 82 82 82 82 82 81 81 82 82 82 83 83 82 82 82 82 82 82 82 82 82 82 83 83 83 83 83 82 82 82 83 83 84
82 83 83 83 84 85 85 84 82 81 80 77 76 76 78 80 81 80 79 79 79 78 78 77 76 75 75 76 76 77 76 74 72 68 64 57 45 29 15 7 3 3 3 3 5 7 10 15 20 25 29 36 43 50 58 68 75 80 83 83 83 82 82 82 82 81 82 82 82 82 82 82 82 82 82 82 81 81 82 82 83 83 83 82 82 82 82 82 82 82 82 82 83 83 83 83 83 83 82 82 83 83 84
82 82 83 81 82 84 85 84 83 82 81 79 77 76 77 79 79 78 77 77 77 77 77 76 75 73 72 73 74 76 76 75 71 67 64 56 45 30 14 6 3 3 3 3 3 3 5 9 13 18 23 30 37 45 53 63 72 79 83 83 82 82 83 82 82 82 82 82 82 82 82 82 82 82 82 82 82 82 82 82 82 83 83 83 82 82 82 82 82 82 82 82 82 83 84 84 84 83 83 82 83 83 85
82 82 84 82 81 82 85 84 83 83 82 80 78 76 75 76 77 76 76 75 75 75 75 75 74 73 70 71 72 73 75 75 73 70 65 57 46 32 16 7 4 3 3 3 3 3 3 4 7 11 16 23 31 40 50 58 67 75 82 83 82 82 83 82 82 82 82 82 82 82 82 82 82 82 82 82 82 82 81 82 82 82 82 82 82 82 82 83 83 83 82 82 82 82 83 84 84 84 83 83 83 83 84
82 83 84 83 83 83 84 84 84 83 83 81 79 77 75 74 74 74 74 74 75 75 76 76 74 73 72 71 71 71 72 74 74 72 68 61 49 35 22 11 6 4 4 3 3 3 3 3 3 6 10 17 25 34 44 52 61 70 80 83 84 82 80 81 82 82 82 82 82 82 82 82 82 82 82 82 82 82 81 82 82 82 81 82 82 82 82 82 83 83 84 82 82 82 83 84 85 85 84 84 83 83 84
82 83 83 83 84 84 84 84 83 83 83 81 80 78 76 74 72 72 73 74 75 76 76 74 73 72 71 70 70 70 70 72 72 71 70 64 54 41 29 17 9 5 4 4 4 3 3 3 3 3 4 10 17 25 34 43 53 63 75 83 85 83 80 80 81 81 82 82 82 82 82 82 82 82 82 82 82 82 82 82 82 82 82 83 82 82 82 82 82 82 83 83 82 81 82 83 85 86 86 85 84 83 84
82 82 82 83 83 83 83 83 83 83 82 81 80 78 77 74 73 72 72 73 74 75 74 73 72 71 70 70 69 69 69 69 70 70 69 65 58 47 36 23 13 7 4 4 4 4 3 3 3 3 3 5 9 15 23 32 43 56 71 81 85 85 82 81 80 80 81 81 82 82 82 82 82 82 82 82 82 82 82 82 82 82 82 82 82 83 82 82 82 81 82 83 83 82 81 82 84 85 86 86 86 85 85
81 82 81 81 81 82 82 82 82 82 82 81 80 79 77 75 73 72 72 72 73 73 72 71 70 70 69 69 68 68 68 68 69 68 67 64 59 51 42 30 19 10 5 5 5 4 4 4 4 3 3 3 5 9 15 24 36 50 67 79 83 83 82 81 80 80 79 80 81 81 81 82 82 82 82 82 82 82 82 82 82 82 82 82 82 82 81 81 82 82 82 82 82 82 82 82 82 83 85 86 87 86 86
81 81 81 80 80 81 80 81 82 82 82 81 80 79 77 75 73 71 71 71 70 70 70 69 69 68 68 68 68 67 67 67 67 67 66 63 58 51 44 33 22 12 6 5 5 5 5 4 4 4 4 3 3 5 10 18 29 43 61 75 80 81 83 81 80 79 79 80 80 80 80 81 81 82 82 82 82 82 82 82 82 82 82 82 82 82 81 81 81 82 82 81 82 82 83 82 82 82 83 85 86 86 86
81 81 81 78 79 80 75 78 81 82 81 81 80 78 76 75 73 72 70 69 68 67 67 66 66 66 66 67 67 66 66 66 66 66 64 61 55 48 42 32 22 14 7 6 5 5 5 5 5 4 4 4 3 3 5 11 20 34 53 71 78 79 82 83 82 81 82 83 82 82 82 81 81 81 81 82 82 82 81 81 82 82 82 82 82 82 81 81 81 81 82 82 82 82 83 83 82 81 81 83 85 86 85
80 80 80 80 80 81 81 79 80 82 81 81 80 78 77 75 74 72 70 68 67 65 64 63 63 63 64 64 64 64 64 64 64 64 63 59 53 46 39 29 21 14 8 6 6 6 6 5 5 5 5 4 4 3 3 6 13 27 52 66 73 77 79 81 82 83 83 83 84 83 83 83 82 81 81 81 82 82 82 82 81 81 81 81 82 82 82 82 81 81 81 82 82 82 82 83 82 81 81 82 83 84 84
80 80 79 80 80 80 81 81 81 81 81 80 79 78 77 76 74 72 70 68 65 63 62 61 60 60 62 62 62 61 59 59 60 62 62 58 51 44 35 26 18 12 6 6 6 6 6 6 6 6 5 5 5 4 3 4 9 22 46 54 65 73 76 79 82 83 82 83 83 83 83 82 82 82 81 81 81 82 82 82 81 81 81 81 81 81 82 82 82 82 82 82 82 82 81 82 82 82 81 81 82 83 83
80 79 78 79 79 80 80 81 81 81 81 80 79 78 77 76 75 72 70 67 64 62 61 59 58 57 59 60 57 54 51 50 53 57 60 57 51 43 33 24 16 9 5 5 6 6 6 6 6 6 6 5 5 5 4 4 7 16 36 43 54 67 74 77 80 82 82 82 83 82 82 82 82 82 81 81 81 81 82 82 82 81 81 81 81 81 81 82 82 82 82 82 82 82 82 81 81 82 82 81 81 81 82
80 79 78 78 78 78 79 79 80 80 80 80 79 78 78 77 75 73 70 68 64 62 60 57 55 55 56 54 53 50 46 44 46 52 57 54 50 43 33 23 14 7 5 5 6 6 6 6 6 6 6 6 5 5 5 4 6 13 29 33 43 56 69 74 77 79 79 81 82 82 82 82 81 82 82 81 81 80 81 82 82 82 81 81 81 81 81 81 81 82 82 82 81 81 82 82 81 81 82 82 81 80 80
80 79 78 78 77 77 77 78 79 80 80 80 79 78 78 77 76 74 71 68 65 62 59 56 54 53 53 52 51 47 39 35 37 43 50 52 49 43 34 22 12 7 5 6 6 6 6 6 6 6 6 6 6 5 5 5 5 9 18 25 34 45 60 70 75 76 77 77 79 81 82 82 81 81 82 81 81 80 80 82 82 82 81 81 81 81 81 81 81 81 82 82 82 81 81 81 81 81 81 81 81 81 80
80 78 77 77 77 76 76 77 78 79 80 80 80 79 78 77 76 75 72 69 66 63 60 56 52 50 50 52 46 36 27 23 23 27 34 42 46 44 35 20 11 7 6 6 6 6 6 6 6 6 6 6 6 5 5 5 5 7 14 21 29 38 49 62 71 75 75 74 76 79 82 82 81 81 81 81 81 81 80 80 81 82 81 81 80 80 81 81 81 81 81 81 81 81 81 81 81 81 81 81 81 81 81
78 77 76 76 76 75 74 75 77 79 80 81 80 79 78 78 77 75 73 70 67 64 60 55 50 46 46 52 44 31 23 19 16 15 17 23 31 34 27 16 10 7 6 6 6 6 6 6 6 6 6 6 6 6 5 5 5 6 12 17 25 33 41 53 65 73 74 73 73 76 79 81 81 80 80 80 80 81 80 80 80 82 81 80 79 79 80 81 81 81 81 81 81 81 81 81 81 81 81 80 80 80 80
77 77 78 78 76 75 73 73 75 77 78 80 81 80 79 78 77 75 73 71 68 64 60 55 51 48 47 50 43 32 23 19 15 12 10 12 15 17 13 10 8 7 6 6 6 6 6 6 6 6 6 6 6 6 6 6 5 5 8 13 20 28 35 44 57 69 74 73 72 73 76 79 80 80 79 80 80 80 79 79 80 81 81 80 79 78 78 80 81 81 81 81 81 81 81 81 81 81 81 80 79 79 80
76 77 79 79 79 78 75 74 75 77 77 77 79 81 80 79 78 76 75 72 70 67 63 58 54 49 43 39 34 28 22 20 16 13 10 9 8 8 8 8 7 7 7 7 6 6 6 6 6 6 6 6 6 6 6 6 5 5 5 9 15 23 29 36 49 63 72 73 73 72 74 76 78 79 79 79 78 78 78 78 79 80 81 80 79 78 78 79 80 81 81 81 81 81 81 81 81 81 81 80 78 78 78
71 72 75 77 79 79 78 76 75 76 79 74 77 81 80 77 76 76 76 74 70 66 64 60 52 43 35 30 25 21 18 18 16 14 11 9 8 7 7 7 7 7 7 7 7 7 6 6 6 6 6 6 6 6 6 6 6 5 5 7 11 17 23 30 43 58 67 71 73 73 73 74 76 78 79 78 77 77 77 77 78 79 81 80 79 78 77 78 79 81 81 81 81 80 80 81 81 81 81 79 78 76 77
64 66 67 70 73 76 76 73 72 73 76 76 78 81 79 73 71 70 70 71 68 62 56 52 46 38 30 25 20 16 13 13 13 12 11 9 8 8 8 8 7 7 7 7 7 7 7 6 6 6 6 6 6 6 6 6 6 6 5 6 9 14 19 27 42 56 62 68 71 73 74 74 75 76 78 75 75 76 76 77 77 79 80 80 80 78 78 77 78 80 81 80 80 80 79 80 81 81 80 78 77 75 75
56 57 58 61 64 68 69 68 68 68 70 74 79 82 81 73 66 62 61 63 62 57 47 42 37 32 25 21 17 13 11 10 9 8 8 9 9 8 8 8 8 8 7 7 7 7 7 7 7 6 6 6 6 6 6 6 6 6 6 5 8 13 19 26 40 54 60 63 67 71 73 74 74 75 77 74 73 73 74 75 76 77 79 80 80 79 78 78 78 80 81 80 79 79 78 79 80 80 79 77 76 75 75
50 50 50 52 55 57 59 60 60 61 64 66 71 77 79 74 66 58 52 53 52 49 42 35 30 26 20 17 13 11 9 8 7 6 6 7 8 9 8 8 8 8 8 7 7 7 7 7 7 7 7 6 6 6 6 6 6 6 6 5 7 11 17 24 35 47 57 60 64 68 72 73 74 74 75 76 75 74 73 75 76 77 79 80 80 80 79 79 79 79 80 79 78 78 77 78 79 78 77 76 76 75 75
46 44 43 44 45 47 48 50 50 52 55 57 60 64 70 70 66 58 48 44 42 39 34 29 24 20 16 13 11 9 7 6 6 6 6 7 7 8 9 8 8 8 8 8 7 7 7 7 7 7 7 7 7 6 6 6 6 6 6 6 6 8 13 20 27 36 48 55 60 64 68 71 73 73 73 75 75 74 70 73 75 76 78 79 79 80 79 78 78 78 79 78 78 77 76 77 77 77 76 75 75 75 75
44 40 36 36 37 39 39 40 41 43 46 49 51 53 56 60 59 55 48 41 36 32 28 23 19 15 12 10 9 8 6 6 6 6 6 6 7 8 8 8 8 8 8 8 8 8 7 7 7 7 7 7 7 7 7 7 6 6 6 6 6 7 9 16 22 28 36 49 57 62 65 69 71 72 73 74 74 74 72 72 74 76 78 79 79 80 79 79 79 79 79 78 78 76 75 76 76 76 75 75 75 75 75
43 37 32 30 30 32 33 32 33 34 37 41 44 45 45 48 48 46 42 37 33 28 24 20 17 13 11 9 8 7 7 6 6 6 6 7 7 8 8 8 8 8 8 8 8 8 8 7 7 7 7 7 7 7 7 7 7 6 6 6 6 7 8 14 20 26 32 46 54 60 62 67 69 70 69 72 75 76 77 74 74 76 78 79 79 79 79 79 79 79 78 78 77 76 75 76 75 75 75 75 75 75 75
45 37 31 27 26 26 26 26 26 27 29 34 37 39 38 38 38 37 35 32 29 26 22 18 15 12 11 9 8 7 7 7 7 7 7 7 7 8 8 8 8 8 8 8 8 8 8 8 8 7 7 7 7 7 7 7 7 7 7 7 7 7 7 12 19 25 30 44 53 58 60 64 68 68 64 70 73 75 77 74 74 75 77 78 78 79 79 79 79 79 77 77 76 76 76 76 75 75 74 75 75 75 75
48 40 34 28 24 22 21 20 20 21 23 27 31 34 32 31 31 30 29 27 24 22 20 17 14 12 11 9 8 7 7 7 7 7 7 7 7 7 8 8 8 8 8 8 8 8 8 8 8 8 8 8 8 7 7 7 7 7 7 7 7 7 6 10 16 22 28 41 50 56 60 63 65 66 66 68 70 73 74 73 74 75 77 78 78 78 78 78 78 78 78 77 77 76 76 75 75 74 74 74 75 75 74
52 45 38 33 28 24 20 18 16 16 17 20 25 28 28 27 27 26 24 23 21 19 17 15 13 11 10 9 8 7 7 7 7 7 7 7 7 7 7 8 8 8 8 8 8 8 8 8 8 8 8 8 8 8 8 7 7 7 7 7 7 7 6 7 11 17 24 36 46 55 60 64 63 62 69 72 75 75 72 73 74 75 76 77 77 77 78 78 77 76 76 76 77 77 76 75 74 74 74 74 74 75 74
56 50 44 39 34 29 26 22 18 15 14 16 20 23 24 25 26 25 23 21 20 17 15 12 11 9 9 8 8 7 7 7 7 7 7 7 8 8 8 8 8 8 8 8 8 8 8 8 8 8 8 8 8 8 8 8 7 7 7 7 7 7 7 6 8 13 20 27 39 52 58 63 61 60 69 70 73 75 73 72 72 73 75 76 77 77 77 78 79 79 78 78 78 78 77 75 74 74 74 74 74 74 75
62 57 51 45 40 36 33 28 24 19 15 14 16 20 22 24 25 25 24 22 20 18 15 13 12 10 9 9 8 8 8 8 8 8 8 8 8 8 8 8 8 8 8 8 9 9 9 9 8 8 8 8 8 8 8 8 8 8 8 8 7 7 7 7 7 9 14 21 29 40 52 58 61 64 70 73 75 76 75 76 75 74 74 76 76 76 76 77 79 80 78 78 78 78 78 77 75 73 73 74 74 74 75
67 62 57 52 47 43 39 35 30 26 21 17 17 18 21 24 25 26 26 24 22 20 18 16 14 12 11 10 10 9 9 9 9 9 9 9 9 8 8 9 8 8 9 9 9 9 9 9 9 9 8 8 8 8 8 8 8 8 8 8 8 8 7 7 7 7 9 15 20 28 41 51 58 64 69 71 73 74 75 76 77 77 76 74 73 73 75 76 78 79 79 80 80 79 79 78 75 74 73 74 74 74 75
70 67 63 58 54 50 46 42 38 34 29 24 20 19 21 24 26 28 28 28 26 24 21 19 17 14 12 11 10 10 9 9 10 10 10 10 9 9 9 9 9 9 9 9 9 10 10 10 10 9 9 8 8 8 8 8 8 8 8 8 8 8 8 8 7 7 7 11 17 23 30 43 53 60 66 69 70 71 72 73 76 77 78 78 75 72 72 75 77 78 79 80 80 80 79 78 76 74 73 74 74 74 75
73 70 67 63 59 56 52 49 46 43 38 32 27 24 23 26 28 30 32 31 30 28 25 22 20 18 15 13 11 10 10 10 10 11 11 11 10 10 10 10 10 10 10 10 10 10 11 11 10 10 10 9 9 8 8 8 8 8 8 8 8 8 8 8 8 7 7 9 13 19 25 37 47 56 61 64 66 68 69 71 74 76 77 77 78 77 72 75 76 77 78 79 79 79 78 77 76 74 73 74 74 74 74
75 72 69 66 63 60 57 54 52 49 45 40 35 31 29 30 31 33 35 35 34 32 29 27 25 22 19 15 13 11 10 11 11 12 12 11 11 11 11 11 10 11 11 10 10 10 11 11 11 11 10 10 9 9 9 9 9 9 9 9 8 8 8 8 8 8 8 7 8 12 17 26 37 47 54 58 60 63 66 69 72 75 77 77 77 77 75 76 76 77 78 77 77 78 77 75 75 75 73 73 74 74 74
76 73 71 68 66 63 60 58 56 54 50 46 42 38 35 34 34 35 37 37 36 35 33 33 30 27 23 19 15 13 11 12 12 12 12 12 12 12 11 11 11 12 12 11 11 12 12 12 12 12 11 11 10 10 9 9 9 9 9 9 9 9 9 8 8 8 8 8 8 8 10 15 23 32 42 49 54 59 63 67 70 73 75 76 76 77 77 76 77 78 77 75 75 76 76 75 76 76 74 74 74 74 74
77 74 72 69 67 64 62 60 59 56 54 50 46 43 40 38 37 37 39 39 37 37 37 36 34 31 28 22 18 14 13 13 13 13 13 13 13 12 11 12 12 12 12 12 12 13 13 12 12 12 12 12 11 11 10 10 10 10 10 10 10 9 9 9 9 9 9 9 9 8 8 9 13 19 25 35 44 52 59 64 68 70 73 74 75 76 76 77 77 76 76 75 76 76 76 76 77 76 76 74 74 74 74
78 75 73 70 68 65 63 62 60 58 55 52 49 46 43 42 40 39 39 38 37 36 36 36 36 34 30 24 20 16 14 15 15 15 14 14 14 13 12 13 13 13 13 13 13 14 14 13 13 13 13 13 12 12 12 12 11 11 11 11 10 10 10 10 10 10 10 9 9 9 9 8 9 11 14 21 30 41 52 59 64 67 70 71 73 74 75 75 74 74 74 77 78 77 75 76 76 77 77 76 75 74 73
78 76 74 71 69 67 65 63 61 59 56 53 50 47 45 43 41 40 38 37 36 34 33 34 35 33 29 25 21 19 17 16 17 17 17 17 16 15 14 14 15 15 14 15 15 15 15 14 14 14 14 14 14 14 13 12 12 12 12 12 11 11 11 11 11 11 10 10 10 10 10 9 9 9 9 13 19 29 42 53 59 64 67 69 71 72 73 73 73 73 74 75 76 76 72 74 76 77 77 77 76 75 73
78 76 74 72 70 68 66 64 62 59 56 53 50 48 45 43 41 39 38 36 35 34 32 32 32 31 28 26 23 21 20 19 19 19 19 19 18 17 17 17 17 16 16 17 17 16 16 16 15 15 15 15 15 15 14 13 13 13 13 13 12 12 12 12 12 11 11 11 11 11 10 10 10 10 10 10 13 20 30 44 53 59 63 66 69 71 72 72 72 72 72 73 73 73 71 73 75 76 76 76 75 74 75
79 77 75 73 70 69 66 64 62 59 56 53 50 47 45 43 41 39 37 36 35 34 33 32 31 29 28 28 27 25 24 23 22 22 21 21 21 20 20 20 19 19 18 19 18 18 18 17 17 17 16 17 17 16 15 14 14 14 14 14 13 13 12 12 12 12 12 12 12 12 12 11 11 11 11 10 12 16 24 35 46 54 59 63 66 70 72 72 71 71 70 71 72 73 75 75 75 74 75 75 75 75 76
79 77 75 73 71 69 67 64 62 59 56 53 49 47 44 42 41 39 37 36 35 35 34 33 31 30 29 29 28 28 28 26 25 25 24 24 24 23 23 22 22 21 20 20 20 20 20 19 19 19 19 19 19 18 16 15 15 15 15 15 15 14 13 13 13 13 13 13 13 13 13 12 12 12 12 12 12 14 20 29 40 49 55 59 63 67 70 70 70 69 69 70 71 74 75 76 75 74 75 75 75 76 76
78 77 75 73 71 69 67 64 62 59 55 52 49 46 43 42 40 38 37 36 35 35 35 34 33 32 30 30 30 29 29 28 28 28 27 27 27 26 26 25 24 24 23 23 22 22 22 21 21 22 22 21 21 20 18 17 16 15 16 16 16 16 15 14 14 13 13 13 14 14 14 13 13 13 13 13 12 12 13 19 27 35 43 49 56 61 66 68 68 67 68 69 71 72 74 75 75 74 74 74 75 76 76
77 75 74 72 70 68 66 64 62 59 55 52 49 46 44 42 40 39 38 37 36 36 36 35 35 34 33 32 31 31 31 30 30 30 31 30 30 29 29 28 28 27 27 26 25 24 24 24 24 24 24 24 23 22 21 19 18 17 17 17 17 17 16 15 15 14 14 14 14 14 14 14 13 13 13 13 13 12 11 11 14 18 25 31 39 48 58 62 64 65 66 68 69 71 72 74 74 74 73 73 74 75 76
75 73 72 70 69 67 66 63 61 58 55 52 50 47 46 44 42 41 40 39 38 37 37 36 36 35 35 34 34 33 32 32 33 33 34 33 33 33 32 31 31 30 29 28 27 27 27 27 27 27 27 26 26 25 24 22 20 20 19 18 18 17 17 16 15 15 14 14 15 15 15 14 14 13 14 14 14 13 12 11 10 10 12 16 22 30 41 51 57 61 63 65 66 67 68 69 70 71 71 72 73 74 75
72 71 70 69 67 66 64 62 60 58 55 53 50 49 47 46 45 43 42 41 40 39 39 38 37 37 36 36 36 35 34 34 34 35 36 36 35 35 34 34 33 32 31 30 29 29 29 29 29 28 28 28 27 26 25 23 22 21 20 19 19 18 17 16 15 14 14 14 14 14 14 14 14 14 14 14 14 14 13 12 11 10 10 11 13 17 23 34 45 55 60 61 63 64 65 67 68 69 70 72 74 74 75
69 68 68 67 66 64 63 62 60 57 55 53 51 50 49 48 46 44 43 42 41 40 40 39 39 39 39 38 37 37 36 35 36 36 37 38 37 37 35 35 34 33 32 31 31 30 30 30 29 28 28 28 27 26 25 24 22 21 20 20 20 19 17 15 14 13 13 14 14 14 14 14 14 14 14 15 15 14 13 12 11 10 10 11 12 13 15 22 33 44 52 57 60 62 65 66 68 69 69 70 71 72 73
65 65 64 64 63 62 61 60 59 57 55 54 52 51 50 48 46 45 44 43 42 41 40 40 40 40 40 40 40 39 38 37 37 37 39 40 40 38 37 35 34 33 32 32 31 30 30 29 29 29 29 28 28 28 27 26 25 23 22 22 21 20 18 16 15 14 13 13 14 14 14 14 14 14 15 15 15 15 14 12 11 10 11 12 13 14 14 16 20 26 32 38 43 47 52 54 59 63 66 69 71 73 73
61 61 61 61 60 60 59 58 57 56 54 53 52 51 49 48 47 45 44 43 42 41 41 41 41 41 41 41 41 40 39 38 38 38 40 40 39 39 39 36 35 34 33 32 31 30 30 29 29 29 30 29 29 29 29 28 27 26 25 25 24 23 21 20 18 17 16 15 15 14 14 14 14 15 16 16 16 16 15 13 12 11 11 12 14 14 15 15 16 17 18 20 23 26 28 33 45 58 64 69 70 71 72
59 58 57 57 57 57 56 56 55 54 54 53 52 51 49 48 47 46 45 44 43 42 42 42 41 41 41 41 41 40 40 39 39 39 39 39 39 39 39 38 39 39 39 34 32 32 32 32 31 31 30 30 30 30 30 31 31 30 29 28 28 27 26 25 24 24 23 21 19 16 15 14 14 15 16 17 17 17 16 14 12 11 12 13 14 15 15 16 17 17 17 18 18 19 19 31 46 59 64 68 70 71 72
57 56 55 55 55 54 54 54 53 53 52 52 51 51 50 49 48 47 46 45 44 43 42 42 41 41 40 40 40 41 41 40 40 40 39 39 39 39 39 45 45 44 44 41 39 38 35 35 35 34 32 31 30 31 31 33 34 33 32 32 32 31 30 31 31 31 31 29 25 20 17 15 15 15 17 18 19 18 17 15 13 12 12 14 15 16 16 17 17 18 19 19 19 20 20 37 50 59 64 67 69 71 72
55 55 54 54 53 53 53 53 52 52 51 51 51 50 50 50 49 48 47 46 46 45 44 43 42 42 41 40 40 40 40 40 40 40 40 39 40 41 45 48 50 51 50 44 42 42 45 46 41 35 34 32 32 32 32 34 35 35 35 36 36 35 36 36 37 38 38 35 31 26 22 18 16 16 18 19 20 19 18 16 14 13 13 15 16 16 17 18 18 19 20 20 21 21 20 28 43 56 61 64 67 69 71
53 53 53 52 52 52 52 51 51 51 51 50 50 50 50 50 49 48 47 47 46 45 45 44 44 43 43 41 40 39 39 40 41 41 41 40 40 41 43 48 50 52 57 50 46 46 47 47 41 34 33 32 32 32 33 34 35 36 38 38 39 39 39 40 41 41 41 38 35 32 28 23 19 18 18 20 20 20 19 17 15 14 15 16 17 17 18 19 19 20 21 21 21 22 22 21 34 51 60 62 64 66 69
50 50 51 51 50 50 50 50 50 50 50 50 50 50 49 49 48 48 47 47 46 45 45 45 45 44 44 42 41 40 39 40 40 41 42 41 41 40 38 43 47 50 51 50 51 54 62 50 46 43 37 34 33 33 34 34 35 36 38 39 39 39 40 41 42 42 41 39 37 35 31 27 23 20 19 20 21 21 20 18 16 16 16 17 18 18 19 19 20 20 21 21 22 22 23 23 24 29 44 56 61 63 66
46 47 47 48 48 48 49 49 49 49 50 50 49 49 49 48 48 48 47 47 46 46 45 45 45 44 44 43 42 41 41 40 41 42 42 42 42 41 40 40 42 46 47 49 51 53 55 46 46 47 43 38 35 33 32 33 33 34 35 36 36 37 38 40 42 42 42 41 39 37 33 30 27 24 20 21 22 22 21 19 18 17 17 18 19 19 20 20 20 21 21 22 23 23 24 24 25 25 22 44 56 63 66
41 43 44 44 45 46 47 47 48 48 49 49 49 49 49 48 48 48 47 47 46 46 45 45 45 45 44 44 43 43 43 42 42 43 43 44 44 43 43 42 40 39 38 41 43 45 47 46 47 48 47 42 38 36 35 34 34 34 33 33 33 35 37 39 40 41 41 40 39 37 35 33 30 26 23 22 22 22 21 20 19 18 19 19 20 20 20 20 21 21 22 23 24 25 25 25 26 26 26 44 57 64 68
38 39 40 41 43 44 45 45 46 47 47 48 48 49 49 49 48 48 47 47 46 46 45 45 45 45 45 45 45 45 45 44 43 42 44 46 47 47 46 45 44 43 42 41 40 41 44 48 50 50 47 44 41 39 37 36 35 34 33 32 33 34 35 36 37 38 38 37 37 36 36 34 31 29 26 24 23 23 22 21 20 20 20 20 21 21 21 21 22 22 22 23 25 26 27 27 27 31 39 54 62 67 70
37 37 39 40 41 42 43 44 45 46 46 47 48 48 49 49 48 48 47 47 47 46 46 46 45 45 45 45 46 46 46 45 44 43 43 46 48 49 49 49 49 48 47 46 45 44 44 45 47 49 49 48 46 43 41 39 37 36 35 34 34 34 34 34 34 35 35 34 35 35 36 34 33 31 29 26 25 24 23 22 21 21 21 21 21 22 22 23 24 24 23 24 26 28 28 29 32 39 53 61 65 67 70
37 37 39 40 40 41 42 44 45 45 45 46 47 48 48 48 48 48 48 47 47 47 47 46 46 46 46 46 46 46 46 46 45 45 43 44 45 46 48 50 51 52 51 50 49 49 48 48 47 47 48 51 50 47 45 43 41 38 37 36 35 34 34 33 33 33 33 32 33 33 34 34 33 31 29 27 26 25 24 23 23 22 22 22 23 23 25 26 26 26 25 25 26 28 29 30 34 40 50 59 63 65 67
Wind_Speed
10 10 10 10 10 9 9 9 9 9 9 9 9 9 9 9 9 9 9 10 10 10 10 10 10 11 11 11 11 11 11 11 11 11 11 10 10 10 10 10 10 10 10 11 11 11 11 11 11 12 13 14 16 17 18 19 20 19 19 18 17 16 15 14 13 14 14 14 14 14 14 14 14 14 14 15 15 15 15 15 15 15 15 15 16 16 16 16 16 16 16 16 16 16 16 16 16 17 17 17 17 17 17
10 10 10 10 10 10 10 9 9 9 9 9 9 9 9 9 9 9 9 9 9 10 10 10 10 10 10 11 11 11 11 11 11 10 10 10 10 10 10 10 10 10 10 10 10 10 10 10 10 10 11 12 13 15 17 18 19 19 18 18 17 16 14 13 13 13 13 13 13 14 14 14 14 14 14 14 14 14 14 15 15 15 15 15 15 15 15 15 15 15 16 16 16 16 16 16 16 16 16 16 17 17 17
11 10 10 10 10 10 10 10 9 9 9 9 9 8 8 8 8 8 9 9 9 9 9 9 10 10 10 10 10 11 11 11 11 10 10 9 9 9 9 9 9 9 9 9 9 9 9 8 8 8 9 10 11 13 15 17 18 18 18 18 17 16 14 13 13 13 13 13 13 13 13 13 13 13 13 14 14 14 14 14 14 15 15 15 15 15 15 15 15 15 15 15 15 15 16 16 16 16 16 16 16 16 16
11 10 10 10 10 10 10 10 9 9 9 9 8 8 8 8 8 8 8 8 8 8 9 9 9 9 9 10 10 10 10 10 10 10 9 8 8 8 8 8 9 9 9 8 8 8 8 8 8 7 8 8 9 11 13 15 17 18 17 17 16 15 13 12 12 12 13 13 13 13 13 13 13 13 13 13 13 13 13 14 14 14 14 15 15 14 15 15 15 15 15 15 15 15 15 15 15 16 16 16 16 16 16
11 11 11 10 10 10 10 10 9 9 9 9 9 8 8 8 8 8 8 8 8 8 8 8 8 9 9 9 9 9 10 10 10 9 8 8 7 7 7 8 8 8 8 8 7 7 7 7 7 7 7 7 8 9 12 14 16 17 17 16 15 13 12 12 12 12 12 12 12 12 13 13 13 13 13 13 13 13 13 13 14 14 14 14 14 14 14 14 14 14 14 14 14 15 15 15 15 15 16 16 16 16 16
11 11 11 11 10 10 10 10 10 9 9 9 9 8 8 8 7 7 7 7 7 7 8 8 8 8 8 8 9 9 9 9 9 9 8 7 6 6 6 7 7 7 7 7 7 6 6 6 6 6 6 7 7 8 10 12 14 16 16 16 14 12 11 11 11 11 12 12 12 12 12 12 12 12 13 13 13 13 13 13 13 13 14 14 14 14 14 14 14 14 14 14 14 14 14 14 15 15 15 15 15 15 15
12 11 11 11 11 10 10 10 10 9 9 9 9 8 8 8 7 7 7 7 7 7 7 7 7 7 7 8 8 8 8 9 9 8 8 7 5 5 5 6 7 7 7 6 6 6 5 5 5 5 6 6 7 7 9 10 12 14 15 15 13 10 10 11 11 11 11 11 11 11 12 12 12 12 12 12 12 13 13 13 13 13 13 13 13 13 14 14 14 14 14 14 14 14 14 14 14 14 15 15 15 15 15
12 12 11 11 11 11 10 10 10 10 9 9 9 8 8 8 7 7 7 7 7 6 6 6 6 7 7 7 7 7 8 8 8 8 7 7 5 4 4 5 6 6 6 6 5 5 5 4 4 4 5 5 6 6 8 9 11 13 15 15 13 10 10 10 10 10 10 11 11 11 11 11 11 11 12 12 12 12 12 12 13 13 13 13 13 13 13 13 13 13 13 13 13 13 13 13 13 14 14 14 15 15 15
12 12 12 11 11 11 11 10 10 10 10 9 9 9 8 8 8 7 7 7 6 6 6 6 6 6 6 6 6 7 7 7 7 7 7 6 5 3 2 3 4 5 5 5 5 4 4 4 4 4 4 4 5 5 6 7 9 12 14 14 12 10 9 9 9 9 10 10 10 10 10 11 11 11 11 11 11 12 12 12 12 12 13 13 13 13 13 13 13 13 13 13 13 13 13 13 13 13 14 14 14 14 15
13 12 12 12 11 11 11 11 10 10 10 9 9 9 8 8 8 7 7 7 6 6 6 6 5 5 6 6 6 6 6 6 6 6 6 6 5 3 2 2 3 4 4 4 4 4 3 3 3 3 3 3 4 4 5 6 8 10 12 11 10 9 9 9 9 9 9 9 9 10 10 10 10 10 11 11 11 11 11 12 12 12 12 12 12 12 12 13 13 13 13 13 13 13 13 12 12 12 13 13 14 14 14
13 13 13 12 12 11 11 11 11 10 10 10 9 9 9 8 8 7 7 7 6 6 6 5 5 5 5 5 5 5 6 6 6 6 5 5 4 3 2 0 2 3 3 3 3 3 3 3 2 2 3 3 3 3 4 4 6 9 11 9 8 8 8 8 8 8 8 8 9 9 9 9 10 10 10 10 10 11 11 11 11 12 12 12 12 12 12 12 12 12 12 12 12 12 12 12 12 12 12 13 13 13 14
14 13 13 13 12 12 11 11 11 11 10 10 10 9 9 8 8 8 7 7 6 6 6 5 5 5 5 5 5 5 5 5 5 5 5 5 4 3 2 1 1 2 2 2 2 2 2 2 2 2 2 2 2 2 3 3 4 7 9 8 7 7 8 8 8 8 8 8 8 8 9 9 9 9 9 10 10 10 10 11 11 11 11 12 12 12 12 12 12 12 12 12 12 12 12 12 12 12 12 12 12 13 13
14 14 13 13 13 12 12 12 11 11 11 11 10 10 9 9 8 8 7 7 7 6 6 5 5 5 5 5 5 5 5 5 5 5 5 4 4 4 3 2 2 1 1 2 2 2 2 2 2 2 2 2 2 2 2 2 3 5 7 7 6 7 7 7 7 7 8 8 8 8 8 8 8 9 9 9 9 9 10 10 10 11 11 11 11 12 12 12 12 12 12 12 12 12 12 12 12 11 11 11 12 12 12
14 14 14 14 13 13 13 12 12 11 11 11 10 10 10 9 9 8 8 7 7 6 6 5 5 5 5 5 5 5 5 5 5 5 5 4 4 4 4 4 3 2 2 1 1 1 2 2 2 2 2 2 2 2 2 2 2 3 6 6 6 6 6 6 6 7 7 7 7 7 7 8 8 8 8 8 9 9 9 9 10 10 10 11 11 11 11 11 12 12 12 12 12 11 11 11 11 11 11 11 11 11 12
15 15 14 14 14 13 13 13 12 12 12 11 11 10 10 10 9 9 8 8 7 7 6 6 6 5 5 5 5 5 6 6 6 5 5 5 5 5 6 5 4 3 2 2 2 2 2 2 2 2 2 2 2 2 2 2 2 2 4 5 5 5 5 5 5 5 6 6 6 6 7 7 7 7 8 8 8 8 8 9 9 9 10 10 10 11 11 11 11 11 11 11 11 11 11 11 11 11 11 11 11 11 11
15 15 15 15 14 14 14 13 13 12 12 12 11 11 11 10 10 9 9 8 8 7 7 6 6 6 6 6 6 6 6 7 6 6 5 6 6 7 7 6 5 3 3 2 3 3 3 3 3 3 3 3 3 3 3 3 2 1 3 4 4 4 4 4 4 4 5 5 5 6 6 6 6 7 7 7 7 7 8 8 8 9 9 9 10 10 10 11 11 11 11 11 11 11 11 11 11 11 11 10 10 10 10
16 16 15 15 15 15 14 14 13 13 12 12 12 11 11 11 10 10 9 9 8 8 8 7 7 7 7 7 7 8 8 8 7 7 7 6 7 8 8 7 5 3 3 3 3 3 4 4 4 4 4 4 4 3 3 3 3 1 1 2 3 3 3 3 3 3 3 4 4 5 5 5 6 6 6 6 7 7 7 7 8 8 8 9 9 10 10 10 10 11 11 11 11 11 11 11 11 10 10 10 10 10 10
17 16 16 15 15 15 15 14 14 13 13 12 12 12 12 11 11 10 10 9 9 9 8 8 8 7 7 7 9 10 9 9 8 8 7 7 7 8 9 7 5 4 4 4 4 4 5 5 5 5 5 5 4 4 4 4 3 2 2 2 2 3 2 2 2 3 3 3 3 4 4 5 5 5 5 6 6 6 6 7 7 8 8 8 9 9 9 10 10 10 10 11 11 11 11 11 10 10 10 10 10 10 10
18 17 16 16 16 16 15 15 14 14 13 13 13 12 12 12 11 11 10 10 10 9 9 9 9 8 7 8 9 11 10 9 9 8 8 8 9 9 9 7 6 5 6 5 5 5 5 5 5 5 5 5 5 5 5 5 4 3 3 3 3 3 2 2 1 2 2 2 2 3 3 4 4 4 5 5 5 6 6 6 6 7 7 8 8 8 9 9 10 10 10 10 10 11 10 10 10 10 10 10 10 9 9
19 17 16 16 16 16 16 15 14 14 13 13 13 13 12 12 12 11 11 10 10 10 10 9 9 9 9 10 11 11 10 9 9 9 9 9 10 10 9 8 7 7 7 6 6 6 6 6 6 6 6 6 6 6 6 6 5 5 4 4 4 3 3 2 1 1 2 2 2 2 3 3 4 4 4 4 5 5 5 5 6 6 7 7 7 8 8 9 9 9 10 10 10 10 10 10 10 10 10 10 9 9 9
20 19 17 16 16 16 15 15 15 14 14 14 14 14 14 13 12 12 11 11 11 10 10 10 10 11 12 13 13 12 10 10 10 10 10 10 11 11 10 9 9 8 8 8 7 7 7 7 7 7 7 7 7 7 7 7 6 6 5 5 5 4 4 3 2 1 2 2 2 2 2 3 3 3 4 4 4 4 5 5 5 6 6 6 7 7 8 8 9 9 9 9 10 10 10 10 10 10 10 10 9 9 9
22 21 20 19 17 17 17 16 16 16 16 15 15 15 16 15 14 13 12 13 13 13 12 12 13 14 14 14 13 12 11 11 11 11 11 11 11 11 11 10 10 10 9 9 9 8 8 8 8 8 8 8 8 8 8 7 7 7 6 6 5 5 5 4 3 2 2 3 3 3 3 3 3 3 4 4 4 4 4 5 5 5 6 6 6 7 7 8 8 8 9 9 9 10 10 10 10 10 9 9 9 9 9
24 23 22 21 20 19 19 18 18 18 17 16 16 17 18 18 17 16 16 16 16 15 15 15 15 15 15 14 14 13 12 12 12 12 12 12 12 12 12 11 11 11 10 10 10 9 9 9 9 9 9 8 8 8 8 8 8 8 7 7 6 6 5 4 3 3 3 4 4 4 3 3 3 4 4 4 4 4 4 4 5 5 5 6 6 7 7 7 8 8 8 9 9 9 9 9 9 9 9 9 9 9 9
25 24 24 23 22 21 20 20 19 19 19 18 18 18 19 19 19 19 18 17 17 17 17 17 16 16 15 15 14 14 13 13 13 13 13 13 13 13 13 12 12 11 11 11 11 11 10 10 10 10 9 9 9 9 9 9 9 9 8 8 7 6 6 5 5 4 4 5 5 5 4 4 4 4 4 4 4 4 4 4 5 5 5 6 6 6 7 7 8 8 8 8 8 9 9 9 9 9 9 9 9 9 9
25 25 25 24 23 23 22 21 20 20 20 20 20 19 20 20 21 20 20 19 19 19 18 18 17 17 16 16 15 15 15 14 14 14 14 14 14 14 14 13 13 12 12 12 12 12 11 11 11 11 10 10 10 10 10 10 10 9 9 8 8 7 7 6 6 5 5 5 5 6 5 5 5 5 5 5 5 5 5 5 5 5 5 6 6 6 7 7 7 7 7 8 8 8 9 9 9 9 9 9 9 9 9
26 26 26 25 25 24 23 23 22 21 21 22 22 21 21 21 22 22 21 21 20 20 19 19 18 18 18 17 17 17 16 16 15 15 15 15 15 15 15 14 14 13 13 13 13 12 12 12 12 12 11 11 11 11 11 11 10 10 10 9 9 8 8 7 7 7 6 6 6 6 6 6 6 6 6 6 6 5 5 5 5 5 6 6 6 6 6 7 7 7 7 8 8 8 8 9 9 9 9 9 9 9 9
27 27 26 26 26 25 25 24 23 23 22 23 23 23 23 22 22 22 22 22 21 21 21 20 20 19 19 19 19 18 18 17 17 16 16 16 16 16 15 15 15 14 14 14 13 13 13 13 13 13 12 12 12 12 11 11 11 11 11 10 10 9 9 8 8 8 7 7 7 7 7 7 7 7 6 6 6 6 6 6 6 6 6 6 6 6 6 7 7 7 7 7 7 8 8 8 8 9 9 9 9 9 9
28 27 27 26 26 26 26 26 25 24 24 24 24 24 24 24 24 24 23 23 23 22 22 22 21 21 20 20 20 20 20 19 18 18 17 17 17 17 17 16 16 15 15 15 14 14 14 14 14 14 13 13 13 13 12 12 12 12 12 11 11 10 10 9 9 9 9 8 8 8 8 8 8 7 7 7 7 7 7 7 6 6 6 7 7 7 7 7 7 7 8 8 8 8 8 8 8 8 9 9 9 9 9
29 28 27 27 27 27 27 27 26 26 25 25 25 25 25 25 25 25 25 24 24 23 23 23 22 22 22 22 22 21 21 20 20 19 19 18 18 18 18 17 17 16 16 16 15 15 15 15 15 15 15 14 14 14 13 13 13 13 13 12 12 12 11 11 10 10 10 9 9 9 8 8 8 8 8 8 8 8 8 8 7 7 7 7 7 7 7 7 7 8 8 8 8 8 8 8 8 8 8 9 9 9 9
30 29 28 28 27 28 28 28 28 27 27 27 27 27 27 26 26 26 26 25 25 24 24 24 23 23 23 23 23 23 22 22 22 21 20 20 20 19 19 19 18 17 17 16 16 16 16 16 16 16 16 16 15 15 14 14 14 14 13 13 13 13 12 12 12 11 11 11 10 9 9 9 9 9 9 9 9 9 9 8 8 8 8 8 8 8 8 8 8 8 8 8 8 8 8 8 8 8 8 9 9 9 9
31 30 30 29 28 28 28 29 29 29 28 28 28 28 28 27 27 27 27 27 26 26 25 25 24 24 24 24 24 24 24 23 23 23 22 22 21 21 21 20 19 18 18 17 17 17 17 17 17 17 17 17 16 16 16 15 15 15 14 14 14 14 14 13 13 12 12 12 11 11 10 10 10 10 10 10 9 9 9 9 9 8 8 8 8 8 8 8 8 8 8 9 8 8 8 8 8 8 9 9 9 9 9
33 32 31 31 30 30 29 30 30 30 30 30 30 29 29 28 28 28 28 28 27 27 26 26 25 25 25 26 26 25 25 25 25 25 24 24 23 23 22 21 21 20 19 19 19 19 19 19 19 18 18 18 17 17 17 16 16 16 15 15 15 15 15 15 14 14 13 13 12 12 11 11 11 11 11 10 10 10 10 9 9 9 9 9 8 8 8 8 8 9 9 9 9 9 9 9 9 9 9 9 9 9 9
34 34 33 33 32 31 31 31 31 31 31 31 31 30 30 30 29 29 29 29 28 28 27 27 26 26 26 27 27 27 26 27 27 26 26 26 25 24 24 23 22 22 21 20 20 20 20 20 20 20 19 19 19 18 18 18 17 17 17 17 16 16 16 16 15 15 15 14 14 13 12 12 12 12 11 11 11 11 10 10 10 10 9 9 9 9 9 9 9 9 9 9 9 9 9 9 9 9 9 9 10 10 10
35 35 35 34 34 33 33 33 33 32 32 32 32 32 31 31 31 30 30 30 30 29 29 28 28 27 27 28 28 28 28 28 28 28 28 28 27 26 25 25 24 23 22 22 22 21 21 21 21 21 20 20 20 19 19 19 19 18 18 18 18 18 17 17 17 16 16 15 15 14 14 13 13 12 12 12 12 11 11 11 11 10 10 10 10 9 9 9 9 9 9 9 9 9 9 9 9 9 10 10 10 10 10
36 36 36 36 35 35 35 35 34 33 33 33 33 33 33 32 32 32 31 31 31 31 30 30 29 29 29 29 29 29 29 28 28 29 29 29 29 28 27 27 26 25 25 24 24 23 23 23 22 22 22 21 21 20 20 20 20 20 19 19 19 19 19 18 18 17 17 17 16 16 15 14 13 13 13 13 12 12 12 12 11 11 11 10 10 10 10 9 9 9 9 9 10 10 10 10 10 10 10 10 10 10 10
37 37 37 37 37 37 37 36 36 35 34 34 34 34 34 34 33 33 33 33 33 33 32 31 31 30 30 30 30 30 30 30 30 30 31 31 30 30 29 29 28 27 26 26 26 25 24 24 24 23 23 23 22 22 21 21 21 21 21 20 20 20 20 20 19 19 18 18 17 17 16 15 15 14 14 14 13 13 13 12 12 12 11 11 11 10 10 10 10 10 10 10 10 10 10 10 10 10 10 11 11 11 11
37 37 37 37 38 38 38 38 37 36 35 35 34 35 35 35 35 35 35 35 35 34 34 33 33 32 32 32 32 32 31 31 31 32 32 32 32 31 31 30 29 29 28 28 27 27 26 26 25 25 24 24 23 23 23 22 22 22 22 22 21 21 21 21 20 20 19 19 18 18 17 16 16 15 15 15 14 14 14 13 13 13 12 12 11 11 11 11 10 10 10 10 10 10 10 11 11 11 11 11 11 11 11
38 38 38 38 38 38 38 38 38 36 36 35 35 35 36 36 36 36 36 36 36 36 35 35 34 34 33 33 33 33 33 32 32 33 34 33 33 33 33 32 31 31 30 30 29 28 28 28 27 26 26 25 25 25 24 24 24 23 23 23 23 22 22 22 21 21 20 20 19 19 18 17 17 16 16 16 15 15 15 14 14 14 13 13 12 12 11 11 11 10 10 11 11 11 11 11 11 11 11 11 11 11 11
39 39 39 39 39 39 40 39 38 37 36 36 36 36 36 36 36 36 37 37 37 36 36 36 36 36 35 35 35 34 34 34 34 34 35 34 35 35 34 34 33 33 32 31 31 31 30 30 29 28 27 27 26 26 25 25 25 25 24 24 24 24 23 23 22 22 21 21 20 19 19 18 18 17 17 17 17 16 16 15 15 14 14 13 13 12 12 12 11 11 11 11 11 11 11 11 11 11 11 11 11 11 12
40 40 39 39 40 40 40 39 38 37 36 36 36 36 36 36 37 37 37 37 37 37 37 37 37 37 37 37 36 36 36 35 35 35 36 36 36 36 36 35 35 34 34 34 33 33 32 32 31 30 29 28 28 27 27 27 27 26 26 25 25 25 24 24 23 23 22 22 21 20 20 19 18 18 18 18 18 17 17 16 16 15 15 14 14 13 13 12 12 12 12 12 11 12 12 12 12 12 12 12 12 12 12
41 41 40 40 41 41 40 39 38 37 37 37 37 37 37 37 37 37 37 37 37 37 37 37 36 37 37 37 37 37 37 37 37 37 37 37 37 37 37 36 36 36 36 35 35 35 34 34 33 32 31 30 29 29 29 29 28 28 27 27 26 26 25 25 24 24 24 23 22 21 20 20 19 19 18 18 18 18 18 17 17 16 16 15 15 14 13 13 13 12 12 12 12 12 12 12 12 12 12 12 12 12 12
41 41 41 41 41 41 40 39 38 38 37 37 37 37 37 38 38 38 37 37 37 37 37 37 36 36 36 36 36 36 37 37 38 38 38 38 39 38 38 38 37 37 37 37 37 37 36 36 35 34 33 32 31 31 31 30 30 29 29 28 28 27 27 26 26 26 25 24 24 22 21 21 20 20 19 19 19 19 19 18 18 17 16 16 15 15 14 14 13 13 13 13 13 13 13 13 13 13 13 13 13 12 12
41 41 41 41 41 40 39 39 38 38 37 37 37 37 37 38 38 38 38 37 37 37 37 37 36 36 36 35 34 35 36 37 38 38 39 39 39 39 39 39 39 39 39 38 38 38 38 37 36 35 34 34 33 33 33 32 31 31 31 30 29 28 28 28 27 27 26 26 25 24 23 22 21 21 20 20 20 20 20 19 19 18 17 17 16 16 15 15 14 14 13 13 13 13 13 13 13 13 13 13 13 13 13
40 41 41 41 40 40 39 38 38 37 37 37 37 37 37 37 37 37 37 37 37 36 36 36 36 36 35 35 35 35 35 36 37 38 38 38 39 39 39 40 40 40 40 40 40 40 39 39 38 37 36 36 36 35 35 34 33 33 32 31 31 30 30 29 28 28 27 27 26 25 24 23 23 22 21 21 21 21 21 21 20 20 19 18 17 17 16 15 15 14 14 14 14 13 13 13 14 14 14 14 14 14 14
40 40 40 40 40 39 39 38 38 37 37 36 36 36 36 36 36 36 36 36 36 36 36 35 35 35 35 35 35 35 36 36 36 36 36 36 37 38 38 39 40 40 40 40 40 41 40 40 40 39 38 38 38 37 37 36 35 34 33 33 32 32 31 31 30 29 28 28 27 26 26 25 24 24 23 22 22 22 22 22 22 22 21 20 19 18 17 16 15 15 14 14 14 14 14 14 14 14 14 14 14 14 14
39 39 39 39 39 39 38 38 37 37 36 36 36 36 36 36 35 35 35 36 36 36 36 35 34 33 34 34 35 35 35 35 34 34 33 34 34 35 36 37 38 38 39 40 40 40 40 40 40 40 40 40 39 39 39 38 37 36 35 35 34 33 33 32 32 31 30 29 28 28 27 27 26 25 24 24 23 23 23 24 24 24 23 22 20 19 18 17 16 16 15 15 14 14 14 14 14 14 14 15 15 15 15
38 38 39 39 39 39 38 38 37 37 36 36 36 36 36 36 36 35 35 35 35 35 35 34 33 33 33 33 33 34 34 34 32 31 31 31 32 32 33 34 35 36 37 38 39 39 39 40 40 40 40 40 40 40 40 39 39 38 37 37 36 35 35 34 33 32 31 30 30 29 29 28 28 27 26 25 25 24 24 24 24 24 24 23 22 21 19 18 17 17 16 15 15 14 14 14 14 15 15 15 15 15 15
38 38 38 39 38 38 38 37 37 37 36 36 36 36 36 36 36 35 35 35 34 34 34 33 32 32 32 32 33 33 33 33 32 30 29 29 30 31 31 32 34 36 37 37 38 39 39 39 40 41 41 41 41 41 41 41 40 39 39 39 38 37 37 36 35 34 33 32 31 30 30 29 29 28 27 27 26 25 25 25 25 25 24 23 22 21 21 20 18 17 17 16 15 15 14 14 15 15 15 15 15 15 15
37 37 38 38 38 37 37 37 37 37 37 36 37 37 38 37 36 35 35 34 34 33 33 31 30 30 30 31 32 33 32 32 31 30 28 24 24 27 29 29 31 33 36 36 36 36 37 38 39 40 41 41 42 42 42 42 41 41 41 40 40 40 39 38 37 36 34 33 33 32 31 30 30 30 29 28 27 26 26 25 25 25 25 24 23 22 21 21 20 18 18 17 16 15 15 15 15 15 15 15 15 15 15
37 37 37 37 37 37 37 37 37 37 37 37 38 38 37 36 35 34 34 33 33 32 31 30 30 29 29 29 30 30 30 30 29 26 23 22 19 18 19 21 23 25 27 28 30 31 32 34 36 37 38 38 39 39 40 40 41 41 41 41 41 41 42 41 40 38 37 36 34 33 32 32 31 31 30 29 28 27 26 26 26 26 25 24 23 23 22 21 21 20 19 18 17 16 16 15 15 15 15 15 16 16 16
36 36 37 36 36 37 37 37 37 37 37 37 38 37 36 35 34 34 33 32 32 31 29 27 27 28 28 29 29 28 28 27 26 23 17 19 19 17 12 14 18 21 23 23 24 25 26 28 30 31 32 33 34 34 36 37 38 39 40 40 41 42 42 42 42 41 40 38 37 35 33 33 32 32 32 31 30 28 27 27 27 27 26 25 24 23 22 22 21 20 19 18 18 17 16 16 16 16 16 16 16 16 16
36 37 37 37 37 37 37 37 37 37 37 36 36 36 36 35 34 34 34 33 33 33 31 28 26 25 25 27 27 27 27 25 25 24 20 19 18 17 15 13 11 7 6 14 17 17 21 23 25 27 28 29 30 31 32 33 35 37 38 39 40 41 41 42 42 41 41 40 39 37 35 34 33 33 33 32 31 29 28 28 28 27 26 25 24 23 23 22 21 20 19 18 17 17 16 16 16 16 16 16 16 17 17
37 37 37 37 37 37 37 36 36 37 36 35 35 35 35 34 34 34 34 33 33 33 33 32 29 26 24 24 24 25 26 25 25 26 26 22 17 14 13 7 4 4 4 6 7 9 14 17 20 23 25 26 27 28 30 31 33 34 35 36 38 39 40 40 39 38 38 39 40 39 37 36 35 34 33 32 31 30 29 29 28 28 27 26 25 24 23 21 20 19 19 18 17 17 17 16 16 16 16 17 17 17 17
38 38 38 38 37 37 36 36 36 37 37 36 35 34 34 34 34 34 34 34 33 33 32 33 31 28 25 24 23 23 25 25 26 26 27 25 19 12 6 4 4 4 5 2 5 8 5 4 8 13 18 19 20 23 25 28 30 31 32 34 35 36 36 37 36 36 36 38 39 39 39 37 36 34 33 33 32 31 30 29 29 28 27 26 25 24 23 21 20 19 19 19 18 18 17 17 17 17 17 17 17 18 18
39 39 39 38 38 38 37 37 37 37 37 36 36 35 34 34 34 34 34 34 34 33 32 32 31 30 28 26 25 24 23 24 24 25 26 27 25 18 9 4 4 4 3 2 3 5 5 3 4 8 12 13 15 18 21 24 26 28 30 31 32 33 33 34 34 34 35 37 38 39 39 38 36 35 33 33 32 32 31 30 30 29 28 26 25 24 22 21 20 20 19 19 19 19 18 18 17 17 17 18 18 18 19
40 40 40 39 39 39 39 38 37 37 36 36 36 35 35 35 34 34 34 33 33 33 33 32 32 32 31 28 27 26 24 23 24 25 26 27 28 28 23 13 5 2 2 3 4 4 3 3 5 5 7 7 9 13 17 19 21 24 25 27 29 31 32 32 32 32 34 35 36 37 37 37 36 35 34 33 32 32 31 31 30 29 28 27 25 24 23 21 21 20 20 20 20 20 19 19 18 18 18 18 19 19 19
40 40 40 41 41 40 39 38 38 37 36 36 36 36 36 35 34 33 33 33 33 33 34 33 32 33 33 31 29 27 25 23 23 23 25 27 28 30 30 27 18 10 8 4 3 3 3 5 4 4 8 8 8 9 12 13 15 18 20 22 24 27 29 30 30 31 31 32 33 34 35 35 35 35 34 33 33 32 32 31 31 29 28 27 25 24 23 22 21 21 21 21 21 21 20 20 19 19 19 19 19 19 19
40 41 41 41 41 41 40 39 39 38 37 37 36 36 36 35 34 33 33 33 34 34 34 33 32 32 33 32 30 27 26 24 23 22 23 25 27 29 31 31 31 30 27 18 13 11 8 6 4 4 6 10 13 15 14 14 15 16 17 19 20 22 25 27 29 30 30 31 31 32 32 32 33 33 33 33 33 33 32 32 31 30 28 27 25 24 23 22 22 22 22 22 22 22 21 21 21 20 20 20 19 19 19
40 41 41 41 41 41 41 41 40 39 38 37 36 36 35 35 35 35 34 34 34 33 33 33 33 33 31 31 29 27 27 27 26 24 21 22 24 27 29 30 31 31 31 31 29 24 16 8 5 4 4 7 12 15 14 14 14 15 16 17 18 19 21 24 26 28 29 30 31 31 31 31 31 32 32 32 33 33 33 32 31 30 28 27 25 24 23 23 23 23 24 23 23 23 22 22 22 21 20 20 20 20 20
39 39 40 40 41 41 41 41 40 39 39 38 36 36 36 36 36 35 34 34 33 33 32 33 34 33 31 30 29 29 28 28 28 26 22 19 19 22 26 28 29 30 31 30 30 29 26 20 14 8 5 6 8 9 11 14 16 16 17 18 18 19 20 22 24 26 28 29 30 30 31 31 31 31 31 32 32 33 33 32 31 30 28 27 25 24 24 24 24 25 25 25 24 24 23 23 22 22 21 21 21 21 21
37 38 38 39 40 40 40 40 39 39 39 38 37 37 37 37 36 35 34 34 33 33 32 33 33 33 32 31 31 31 30 28 27 26 25 21 19 20 22 24 26 27 28 28 28 28 27 28 27 22 15 8 6 7 8 11 14 17 19 19 19 20 21 23 24 25 27 28 29 30 31 31 31 31 31 32 32 32 33 32 32 31 29 27 25 24 24 25 26 26 26 26 25 25 24 24 23 23 22 22 22 22 22
Wind_Direction
153 151 150 148 147 145 144 140 138 135 132 129 125 122 119 115 112 109 107 105 103 102 100 99 98 97 98 100 102 104 105 104 103 101 98 93 90 89 90 92 93 95 98 102 105 108 109 108 107 105 104 102 99 96 93 90 86 82 79 76 72 68 62 58 57 57 57 57 56 55 54 53 52 51 50 49 47 46 45 43 43 42 42 41 40 39 38 37 37 36 36 36 35 35 35 34 34 33 32 31 31 30 29
156 155 155 154 152 150 147 145 142 139 136 133 130 127 123 120 117 114 111 108 106 104 103 102 101 100 100 101 103 105 106 107 106 104 102 97 93 91 91 93 94 96 98 102 106 109 110 109 107 106 104 102 99 95 92 89 86 82 78 75 72 68 63 60 59 58 57 56 55 54 53 52 51 50 49 48 47 46 44 43 42 41 41 40 39 38 37 37 36 35 35 34 34 34 34 34 33 32 32 31 30 29 29
161 160 160 159 157 154 151 149 146 144 143 139 135 132 128 125 121 118 115 111 109 107 105 104 103 102 102 102 104 106 108 109 109 108 106 102 97 93 92 93 95 97 99 102 105 108 109 109 109 107 104 101 99 96 92 89 86 82 77 73 70 67 64 61 59 59 58 56 55 54 53 52 52 50 49 48 47 45 44 42 41 41 40 40 39 38 37 36 35 34 34 33 33 33 33 33 32 32 31 30 29 29 28
165 165 165 163 161 159 156 154 152 150 148 145 141 138 134 130 126 123 119 116 113 111 109 107 106 105 104 105 106 107 109 111 112 111 110 106 100 95 92 92 93 95 96 98 100 101 103 107 108 106 104 102 100 97 94 90 87 82 76 71 68 65 62 61 60 59 58 57 56 55 54 53 52 51 49 48 47 45 44 42 41 40 40 39 38 38 37 35 35 34 33 32 32 32 32 32 31 30 30 30 29 28 27
170 169 169 168 166 163 160 158 156 154 152 149 147 144 142 138 133 129 125 121 118 115 112 110 109 109 108 108 108 109 111 113 114 114 113 109 103 96 90 90 90 91 92 93 94 94 95 99 103 104 103 103 101 99 96 93 89 85 79 72 66 63 61 60 59 59 57 57 56 55 54 53 52 51 50 48 47 46 44 42 40 39 38 38 38 37 36 35 34 34 33 32 31 31 31 31 30 30 29 29 28 27 26
173 173 172 171 169 167 165 162 160 158 156 154 152 151 150 147 142 138 133 127 124 120 117 115 115 115 114 112 111 112 113 114 116 116 115 112 105 94 84 85 86 87 87 88 90 89 88 91 95 98 100 102 102 100 98 96 93 89 83 75 67 61 61 60 59 58 57 56 56 54 53 52 51 50 49 48 47 46 44 42 41 39 38 37 37 36 35 35 34 33 32 32 31 30 30 30 29 29 28 28 27 26 26
177 176 175 174 173 171 169 167 165 163 161 159 156 156 156 154 150 146 140 135 130 127 126 124 122 120 119 117 116 115 116 116 118 119 118 116 109 93 80 78 81 83 83 84 84 84 82 83 86 90 95 99 101 101 100 98 95 91 86 79 70 62 61 60 59 58 57 56 55 54 53 52 50 49 48 47 46 45 44 42 40 39 38 36 36 35 34 33 32 32 32 31 30 29 29 29 29 28 28 27 26 26 25
180 179 179 177 176 174 173 171 170 168 166 164 161 160 159 159 156 152 148 143 139 137 134 132 128 125 123 122 121 120 119 120 121 122 122 121 116 102 79 69 73 78 81 80 80 78 76 75 77 82 87 94 99 102 101 99 95 90 85 78 71 64 61 60 59 58 57 55 54 53 52 51 50 48 47 46 44 43 42 41 40 38 37 36 35 34 33 32 31 31 31 30 30 29 28 28 28 28 27 26 26 26 25
183 182 182 181 180 179 178 176 175 172 170 168 166 164 163 163 162 159 155 152 148 146 143 139 135 131 129 126 125 124 123 124 125 126 127 126 125 118 91 58 61 71 77 76 74 72 70 67 68 72 77 87 95 99 100 99 94 88 81 73 67 63 62 61 60 58 57 55 54 53 52 50 49 48 46 45 43 42 41 39 38 37 36 35 34 34 33 31 30 29 29 30 29 28 27 27 26 27 27 26 25 25 25
186 186 186 185 185 183 182 181 180 178 176 175 173 171 169 167 166 165 163 160 158 154 151 148 143 139 136 133 132 131 130 129 130 132 132 132 134 135 122 57 46 57 70 71 70 66 63 58 57 59 65 76 85 92 96 97 95 90 83 69 62 61 61 61 60 59 57 55 54 53 51 50 48 47 45 44 42 41 39 38 37 36 35 34 34 33 32 31 30 28 28 28 28 27 26 26 25 25 25 25 25 25 24
190 190 190 190 189 188 187 186 185 183 182 180 179 178 176 174 171 169 169 168 166 163 160 157 153 148 145 142 140 139 138 137 137 138 139 141 146 152 158 92 25 39 58 65 65 58 52 47 43 43 52 64 72 79 88 91 94 92 87 75 64 61 60 60 60 59 58 56 54 53 51 49 47 46 44 43 41 39 38 37 35 34 33 32 32 31 30 30 29 28 27 27 26 26 25 25 24 23 23 24 24 24 24
193 193 194 195 193 192 193 192 189 187 186 185 185 184 182 181 179 176 176 175 174 172 169 168 164 160 155 152 150 149 148 147 147 148 149 153 163 176 190 234 322 7 37 53 55 50 38 32 26 26 33 45 55 65 73 82 88 90 86 78 69 63 60 59 58 59 58 56 54 53 51 49 47 45 43 41 40 39 37 36 34 33 32 31 30 29 28 28 27 27 26 25 25 25 25 24 23 22 22 21 22 23 22
196 197 196 197 196 195 194 194 194 192 191 190 189 188 187 186 185 183 182 182 181 179 176 177 177 173 168 165 163 161 160 159 159 159 161 170 185 203 220 249 277 308 351 27 36 32 17 8 4 6 12 20 31 41 48 57 76 85 85 83 77 68 59 57 57 57 57 56 54 52 50 47 46 43 41 39 38 37 36 34 33 32 31 29 28 28 27 26 26 25 24 23 23 23 23 23 22 21 21 20 20 20 21
199 199 199 199 200 199 198 197 196 196 195 195 194 193 191 191 189 189 189 188 188 186 184 187 188 185 182 179 178 178 177 175 172 171 174 185 204 223 240 258 270 281 307 342 360 357 345 340 340 343 348 355 1 9 14 22 50 82 93 98 90 75 64 58 55 55 55 54 53 51 49 47 44 42 40 37 36 35 34 33 32 31 30 28 27 26 25 24 24 23 23 22 21 21 21 22 21 20 20 19 19 19 19
202 202 202 202 203 202 202 201 200 200 199 199 198 197 196 195 194 194 194 194 194 194 195 197 198 197 195 195 197 198 197 193 187 184 186 197 216 234 250 262 271 279 296 309 316 317 315 317 321 326 332 336 338 342 346 353 11 80 109 114 101 83 71 58 52 51 52 51 50 49 48 45 42 40 37 35 33 32 31 30 30 29 28 27 25 24 23 22 22 21 21 20 19 18 18 19 19 19 19 18 17 18 18
204 205 205 205 206 206 205 205 204 204 203 203 202 201 199 199 198 198 198 199 199 200 202 205 206 207 208 210 211 210 210 206 200 195 197 207 223 239 253 265 273 283 290 292 296 299 300 303 309 315 319 322 323 325 328 330 340 45 130 130 118 97 78 62 53 49 49 48 46 45 44 43 41 38 34 32 30 28 27 26 27 27 26 25 23 22 22 21 20 19 19 18 17 16 16 16 16 16 17 16 15 15 15
207 207 207 207 208 209 208 208 208 208 207 207 206 205 203 203 203 202 202 203 203 205 207 210 212 213 216 218 219 221 222 220 213 206 204 210 226 242 255 266 276 285 285 286 289 292 295 298 302 306 310 312 314 315 315 315 317 311 183 157 140 121 96 74 54 43 44 44 42 40 38 39 37 35 32 28 26 25 23 22 22 23 23 23 21 20 20 19 18 17 17 16 15 14 13 13 13 14 14 14 14 13 13
209 210 209 209 210 211 211 211 211 211 210 210 210 208 207 206 206 206 206 206 207 208 211 214 218 220 223 226 232 236 236 236 233 227 220 217 224 238 252 268 280 286 282 284 286 289 292 295 298 301 303 306 306 306 306 305 303 292 259 207 173 150 127 90 56 35 34 35 35 33 30 31 31 31 28 25 22 19 18 17 18 18 19 19 18 17 18 16 16 15 15 14 13 12 11 11 10 10 11 12 11 12 12
212 213 212 212 213 214 213 213 213 213 213 213 213 212 211 211 210 210 210 210 211 212 214 219 225 228 225 224 236 245 245 245 245 245 241 237 235 241 256 273 284 284 281 282 285 287 289 292 294 296 299 299 300 300 300 298 294 286 271 246 211 184 168 134 71 25 12 14 19 21 19 20 21 22 21 20 17 14 12 11 12 12 14 14 14 14 14 14 13 13 12 11 11 10 10 9 8 7 8 9 8 9 10
213 214 214 214 216 218 217 216 216 216 217 217 216 216 215 215 215 214 214 214 215 217 221 224 227 228 225 223 234 246 247 248 249 250 251 252 252 257 267 277 281 279 279 280 282 283 285 287 289 291 293 293 295 295 294 293 289 283 273 262 239 215 195 182 165 356 345 346 347 355 1 4 7 10 11 12 11 8 5 4 4 5 7 8 9 9 9 10 10 10 10 9 9 8 8 7 6 5 5 6 6 6 7
215 214 214 214 217 219 220 218 218 218 219 219 219 218 216 215 215 217 218 217 217 219 222 226 227 228 230 233 239 246 248 250 251 253 255 256 260 265 271 274 275 276 276 277 279 279 281 282 284 285 287 288 289 289 289 288 285 281 274 267 255 237 216 203 207 269 303 316 321 325 334 342 348 352 356 358 360 359 357 355 355 357 359 0 2 2 4 5 6 6 6 7 6 5 5 5 4 3 3 3 3 3 3
218 217 216 215 215 217 218 219 218 217 217 220 222 221 219 216 214 214 215 218 219 218 218 225 231 235 238 241 245 248 251 253 255 256 259 260 263 265 268 270 271 273 274 275 275 276 277 278 279 280 282 283 283 284 284 284 282 279 274 269 263 252 234 217 219 257 280 290 298 305 313 320 326 332 338 342 345 347 347 346 347 348 350 352 353 355 358 360 1 2 3 3 3 3 3 3 2 1 1 1 0 0 360
222 221 220 219 218 218 219 220 219 219 217 218 222 225 224 222 219 217 217 220 223 223 224 228 235 242 246 248 250 253 255 257 258 259 261 262 264 265 267 267 268 269 270 271 272 273 274 275 276 277 278 278 279 279 280 280 279 277 274 269 266 261 248 231 233 257 271 278 283 291 297 302 308 313 320 325 329 333 335 336 337 337 340 342 345 346 349 353 355 357 358 359 360 360 360 360 360 359 358 358 357 357 356
226 226 225 224 223 222 222 222 222 221 219 218 221 225 228 228 226 225 224 225 227 230 233 235 240 246 253 255 256 258 261 262 262 262 262 262 263 264 264 265 266 266 267 268 269 270 271 272 273 274 275 276 276 276 277 277 276 275 273 270 267 265 259 245 243 254 263 272 278 283 287 292 296 300 305 312 316 319 322 324 325 327 329 332 335 337 340 345 348 351 352 354 355 356 356 357 357 356 355 355 355 354 352
230 230 230 229 228 227 227 227 226 225 224 222 223 225 229 231 231 231 231 230 233 236 240 242 246 251 256 259 261 263 264 265 264 264 263 263 262 262 262 263 263 264 265 265 266 267 269 270 271 272 273 274 274 275 275 276 275 275 274 270 268 266 264 256 251 251 257 265 272 278 281 286 289 292 295 300 305 308 311 314 316 318 319 323 326 328 331 336 340 344 346 347 349 350 352 353 353 352 351 351 351 350 348
234 234 234 234 233 233 233 232 231 230 228 228 228 228 230 233 235 236 236 237 238 241 244 248 251 255 258 261 263 265 266 267 267 266 265 264 263 262 262 262 262 263 263 264 265 266 267 268 269 271 271 272 272 273 274 275 275 275 275 272 269 267 266 264 258 254 254 259 266 272 277 280 283 286 288 292 296 300 302 305 306 308 310 313 316 319 321 326 330 335 338 339 341 344 346 348 348 348 347 347 347 346 345
237 237 238 238 238 237 237 237 236 235 234 234 234 233 233 235 237 240 241 242 243 245 248 251 254 257 260 262 264 266 268 268 268 268 267 266 264 263 262 262 262 263 263 264 264 265 266 267 268 269 270 270 271 272 272 273 274 275 275 274 271 268 267 266 265 260 256 259 264 268 273 277 280 282 284 286 289 293 295 297 300 301 303 306 308 311 313 317 321 325 329 332 335 338 340 342 343 343 343 343 342 342 341
239 240 241 241 241 240 240 240 240 240 239 239 238 238 238 238 240 242 244 245 246 248 251 254 256 259 261 263 265 266 267 268 268 268 268 267 266 265 264 263 262 263 264 264 265 265 266 267 268 268 268 269 270 270 271 271 272 273 274 274 273 270 267 267 267 266 262 261 263 267 270 273 277 279 280 281 284 288 290 293 294 295 297 298 301 303 306 308 312 316 320 324 328 331 333 335 337 338 337 337 337 337 337
240 241 242 243 243 243 243 243 243 243 242 242 241 241 242 241 242 244 246 248 249 251 253 256 258 260 262 263 264 265 266 267 268 268 268 267 267 266 265 264 263 263 264 265 265 266 266 267 267 267 267 268 268 268 269 269 270 271 272 272 272 270 268 267 267 267 266 263 264 266 267 271 274 276 277 278 280 283 285 287 289 290 291 293 294 296 299 301 304 308 313 317 321 323 326 329 330 331 331 331 331 332 333
241 242 243 244 244 245 245 246 246 245 245 244 244 243 244 244 245 246 247 249 251 253 255 257 259 260 261 263 264 264 265 266 267 267 267 267 267 266 266 265 264 264 264 264 265 266 266 266 266 266 266 266 267 267 267 268 268 269 269 270 270 269 267 266 266 266 266 265 264 265 267 270 273 274 275 275 276 278 281 283 284 285 286 287 289 291 293 295 298 301 306 311 315 318 320 322 323 324 324 324 325 326 328
241 243 243 244 245 246 246 247 247 247 247 246 246 246 246 247 247 247 249 250 252 254 255 257 259 261 262 263 263 264 265 266 267 267 267 267 266 266 265 265 264 263 263 264 264 265 265 265 265 265 265 265 266 266 267 267 267 267 267 267 268 267 266 265 264 264 265 263 263 264 266 269 270 272 273 274 274 275 277 279 280 281 281 282 284 286 288 291 293 297 301 305 309 313 315 315 316 317 318 318 319 320 322
243 243 244 245 246 247 248 248 248 248 248 248 247 248 248 248 248 249 250 251 252 254 256 258 260 262 263 263 264 265 266 266 267 267 268 268 267 266 265 264 264 263 262 262 262 262 263 263 264 264 264 264 265 265 266 266 266 266 266 266 266 266 265 263 262 262 262 261 261 261 263 266 268 270 271 272 272 273 274 275 276 277 277 279 280 282 284 287 290 294 297 301 305 308 310 311 311 312 313 313 313 314 315
243 244 244 245 246 248 249 249 249 250 249 249 249 249 249 249 249 250 251 252 253 255 257 259 261 263 264 264 265 265 265 265 266 267 267 267 267 266 265 264 263 263 262 261 261 261 261 262 262 262 263 263 264 264 265 265 266 266 266 265 265 265 264 263 261 260 260 259 258 257 259 261 264 267 269 270 270 271 271 272 273 273 274 275 277 278 281 283 286 290 293 297 301 303 306 307 307 307 308 308 308 309 310
243 244 245 246 247 249 250 250 251 252 251 250 250 249 249 249 250 250 251 252 253 255 256 258 260 262 263 264 264 264 263 263 264 265 265 266 266 265 265 264 263 263 262 261 261 260 260 261 261 261 262 262 263 263 263 264 264 265 265 265 264 264 263 262 260 259 258 257 256 255 255 257 260 263 266 268 268 269 269 270 270 271 271 271 273 275 278 280 283 286 290 294 297 299 301 302 303 303 303 303 304 305 306
244 245 246 247 248 249 250 252 253 254 253 252 251 250 249 249 250 250 251 252 253 254 255 257 259 261 262 263 263 262 262 261 261 262 263 264 264 264 264 264 263 263 262 262 261 261 260 260 260 261 261 262 262 262 263 263 263 264 264 264 263 262 261 260 259 257 256 255 254 253 252 253 256 259 261 264 266 267 267 267 268 268 269 270 271 272 275 278 281 284 287 290 293 296 298 299 299 300 300 300 301 301 302
245 246 247 247 248 250 251 253 255 255 255 254 252 251 250 250 249 250 250 251 252 253 255 256 258 260 261 262 262 261 260 259 259 259 260 261 263 263 263 263 263 263 263 262 261 261 261 260 261 261 262 262 263 263 263 263 263 263 263 262 262 261 260 259 258 257 255 254 253 252 250 251 252 255 257 259 261 263 265 266 265 266 266 267 269 271 272 276 279 282 285 287 290 292 294 295 296 296 296 297 298 299 299
246 247 248 248 250 251 252 254 256 257 256 255 254 252 251 250 249 249 249 250 251 252 254 256 257 259 260 261 261 261 260 259 258 258 259 260 262 263 263 263 263 263 262 262 262 262 262 261 261 262 262 263 263 263 263 263 263 262 262 261 261 260 259 258 257 256 255 254 253 252 251 250 250 251 253 255 256 259 263 264 264 264 264 264 266 268 270 274 277 280 283 285 287 289 290 291 292 294 294 294 295 296 298
246 248 249 250 251 252 253 255 256 257 257 256 255 254 252 251 251 250 250 251 252 253 254 255 257 258 260 260 261 260 260 258 257 257 258 260 261 262 262 263 264 263 263 263 264 264 263 263 262 263 263 264 264 264 264 264 263 262 262 261 260 259 258 257 256 255 254 254 253 252 252 251 249 249 250 252 253 255 258 261 261 261 262 262 264 266 268 271 275 279 282 283 284 286 287 288 290 291 291 292 293 295 296
247 248 249 251 252 253 254 256 257 257 258 257 256 255 254 253 253 252 252 252 253 254 255 256 257 259 259 260 260 260 259 258 257 257 259 259 260 261 263 264 264 264 265 265 265 264 264 264 264 264 264 264 265 265 265 265 264 263 262 261 260 259 258 257 256 255 254 253 252 252 252 251 251 250 250 250 251 251 253 255 257 259 260 260 261 263 266 270 273 276 279 281 282 284 285 286 287 289 290 290 291 293 294
247 248 249 251 252 254 256 256 257 257 257 257 256 256 255 254 253 253 253 254 255 256 256 256 258 259 259 259 259 259 258 257 257 257 258 259 260 262 263 264 265 265 266 266 266 265 265 265 265 265 265 265 266 267 266 266 265 263 262 261 260 260 259 258 257 256 255 253 252 252 251 251 251 251 251 251 250 250 250 251 252 255 257 258 259 261 264 267 271 274 277 280 282 282 282 283 285 286 288 289 290 291 291
247 248 249 250 252 254 255 255 256 256 256 256 256 255 255 254 254 254 255 255 256 257 258 257 257 258 259 260 259 258 258 257 256 257 258 259 260 262 263 264 265 265 266 266 266 266 266 265 266 266 266 266 267 267 267 266 265 264 263 261 261 260 259 259 258 257 256 255 254 253 252 252 252 252 252 251 251 250 249 248 249 250 252 254 256 259 262 265 268 272 275 278 279 280 280 281 283 285 286 288 289 289 290
246 247 248 249 251 253 253 254 255 255 255 255 254 254 254 254 254 255 255 255 256 257 258 258 258 258 259 260 260 259 258 258 257 256 257 259 260 261 262 263 264 265 265 265 266 266 266 266 266 266 267 267 267 267 267 267 266 265 263 262 261 260 259 259 258 258 257 256 256 255 254 253 253 252 252 251 251 250 248 247 246 247 248 250 252 255 259 262 265 269 272 275 277 277 277 279 281 283 284 285 286 287 289
246 247 248 249 250 251 252 253 254 254 254 254 253 253 253 253 254 255 255 255 256 257 258 258 258 258 258 258 258 258 258 257 257 257 257 258 260 261 262 262 263 264 265 265 265 266 266 267 267 267 267 267 267 267 267 267 267 265 264 263 262 260 259 258 258 258 258 258 257 257 256 255 254 253 253 252 250 249 247 245 244 245 246 247 250 252 255 259 262 266 270 273 275 276 277 278 279 281 282 284 284 286 288
246 247 248 249 250 251 251 252 252 253 252 252 252 252 252 252 253 253 254 255 255 255 257 258 258 258 257 257 256 256 256 256 257 258 259 259 260 261 262 262 263 264 264 264 265 266 266 267 267 267 267 267 267 267 267 267 266 265 264 263 262 261 259 258 258 257 258 258 258 258 257 256 255 254 253 252 250 248 246 243 242 242 243 245 248 250 252 256 260 263 267 270 273 275 276 277 278 279 281 282 284 285 287
245 246 247 248 249 250 250 251 251 251 251 251 251 251 251 251 252 252 253 253 253 253 254 256 257 257 257 256 256 256 256 257 258 260 261 261 262 263 263 264 264 264 264 265 265 266 266 267 267 267 267 266 266 266 267 267 267 266 265 263 262 261 260 258 257 257 257 257 257 257 257 257 256 255 254 253 251 249 246 243 240 239 239 241 243 247 250 253 256 260 264 268 270 272 274 276 276 277 279 281 283 284 285
245 245 246 247 248 248 249 250 250 250 250 250 250 250 250 250 250 250 251 251 252 252 252 254 255 256 256 257 257 257 257 258 259 260 261 263 264 264 265 265 265 265 265 265 266 266 267 267 267 266 266 265 265 266 267 267 268 267 266 263 261 260 259 259 257 256 256 256 256 256 256 256 256 255 254 253 252 250 248 244 241 239 238 239 241 244 247 250 253 257 261 265 267 270 272 274 276 277 279 280 281 282 284
245 245 246 246 247 248 248 248 248 248 248 248 248 247 247 248 248 248 248 248 249 250 251 252 253 254 255 256 257 257 257 257 257 258 260 262 263 264 265 266 266 266 266 266 266 267 266 267 266 266 266 266 266 266 266 267 268 267 266 264 262 261 260 259 258 257 256 255 255 255 255 255 255 255 254 253 252 251 249 245 242 239 238 239 241 242 244 246 249 253 256 260 264 267 269 271 274 276 278 279 280 281 282
246 246 246 247 247 247 248 247 247 247 247 247 246 246 246 247 247 247 248 248 248 249 251 251 251 253 254 255 255 255 255 255 255 255 257 261 264 265 266 268 269 268 267 267 267 267 267 267 268 268 267 267 267 267 267 267 267 266 265 265 263 262 260 259 258 257 256 255 254 254 254 254 255 255 254 253 252 251 248 245 241 239 238 239 241 242 242 243 246 249 253 256 260 264 267 270 272 274 276 279 280 280 281
246 246 246 247 247 247 247 247 247 246 246 246 246 246 248 248 248 249 250 249 249 250 251 251 250 251 252 254 254 255 254 253 253 253 254 260 267 270 270 270 271 272 272 271 271 271 271 271 271 270 269 268 268 268 267 267 266 265 265 264 263 262 261 260 259 258 257 256 255 254 253 253 254 254 253 252 251 250 247 244 239 237 237 238 240 241 242 242 243 246 249 252 256 260 265 269 272 274 276 277 278 279 279
246 245 246 246 246 246 246 246 246 246 246 246 247 248 249 249 249 249 249 249 249 249 249 250 249 249 249 251 253 254 254 254 253 251 252 254 260 268 275 275 275 276 277 277 277 277 275 273 271 270 269 268 268 267 267 266 264 264 263 262 261 261 262 262 261 260 258 257 255 254 253 253 253 253 252 252 250 249 246 242 238 236 235 237 239 241 241 241 242 243 245 247 249 253 257 261 267 272 275 276 278 278 278
247 246 246 246 246 246 246 246 246 246 246 247 248 248 248 248 248 248 247 247 247 246 244 245 248 249 247 248 252 255 255 254 250 246 242 247 250 252 263 278 284 285 282 282 280 277 273 270 268 268 268 267 266 266 265 264 262 261 260 259 259 259 261 261 261 261 259 257 255 254 253 252 252 252 252 251 249 247 245 241 238 235 235 237 239 240 241 242 243 244 245 247 248 250 253 256 262 267 273 276 276 276 277
248 247 247 246 246 247 247 247 247 246 246 246 246 247 247 246 246 246 246 245 245 244 242 242 245 249 248 248 251 254 253 250 246 239 232 242 247 248 252 271 286 292 290 293 287 276 271 266 265 266 266 266 265 264 262 261 259 258 258 258 257 258 259 260 260 260 259 258 257 255 253 252 251 251 251 250 248 246 244 240 237 235 235 237 239 240 241 243 245 246 248 250 251 253 255 258 262 266 271 274 275 275 275
249 249 248 247 247 247 248 247 246 247 246 244 244 245 246 245 245 245 245 244 244 243 242 241 241 244 248 248 249 250 249 247 244 239 235 237 242 251 255 256 260 273 303 314 306 287 272 262 260 262 263 264 264 263 261 258 256 257 257 257 257 257 258 258 258 258 258 258 258 257 255 253 252 251 250 248 247 245 242 239 236 235 235 237 239 241 242 244 246 248 250 252 254 256 258 260 263 265 268 272 275 276 276
250 250 249 249 249 248 247 247 247 247 246 245 244 245 245 245 245 244 244 243 242 241 241 241 239 240 244 248 248 248 248 246 243 240 237 235 234 239 257 227 221 255 278 285 295 293 285 258 253 259 265 266 265 264 262 258 256 256 256 255 256 258 258 257 256 256 256 257 258 258 257 255 253 251 249 247 245 243 241 238 236 235 236 238 240 242 243 245 247 249 252 254 255 257 259 261 263 265 267 270 273 275 276
251 251 251 250 250 249 248 248 248 247 247 246 245 244 245 245 245 245 244 243 242 241 240 239 237 236 238 244 247 248 247 245 242 239 237 234 230 225 228 239 251 267 292 229 233 262 286 307 301 285 274 266 262 260 258 256 256 256 255 254 255 257 257 257 256 255 255 257 258 259 258 257 255 253 249 246 244 242 239 237 235 235 236 239 241 243 245 247 249 251 253 255 257 258 260 262 264 266 268 269 272 274 275
252 252 251 251 250 250 250 249 248 248 247 246 245 244 245 245 246 246 245 244 243 241 240 238 237 235 235 239 245 249 249 247 244 241 236 235 230 227 229 230 234 257 288 260 243 241 255 357 350 314 283 261 251 252 256 259 258 257 257 257 257 257 257 257 256 256 256 258 259 259 259 258 257 254 250 245 242 240 238 236 235 235 236 239 242 244 247 249 251 253 255 257 259 260 261 262 264 266 268 269 271 273 274
252 252 252 252 251 251 250 249 248 248 247 246 245 245 246 246 246 246 245 244 242 241 239 238 237 237 237 238 242 246 248 248 245 241 238 237 234 231 229 230 229 227 230 239 263 278 297 341 348 310 292 286 273 268 276 275 268 264 263 263 263 262 260 258 257 257 258 258 259 259 260 259 257 255 250 245 241 239 238 236 235 235 237 239 242 245 249 252 254 256 258 259 260 261 263 264 266 268 269 270 270 271 273
253 252 252 253 252 251 250 249 248 248 247 246 246 246 246 246 245 244 244 243 242 242 241 238 237 238 239 238 239 242 246 247 244 242 241 240 238 234 232 232 234 237 239 245 257 273 302 317 297 275 301 299 285 277 279 277 274 271 270 271 270 267 264 261 259 259 259 259 259 259 259 259 257 255 251 246 242 239 237 236 235 236 238 240 243 247 251 255 257 258 259 260 262 263 264 266 268 270 270 271 271 271 271
254 254 254 253 252 251 250 250 249 248 247 247 246 246 245 245 245 244 244 244 244 243 241 238 237 237 237 237 235 236 240 243 244 242 239 239 238 236 234 234 235 238 241 246 251 257 265 273 274 275 296 293 287 281 273 270 271 274 276 278 277 274 269 265 262 261 261 260 260 259 258 258 258 256 253 248 243 240 237 236 236 236 238 241 244 249 253 257 259 261 261 262 263 264 266 268 269 271 271 271 270 270 270
255 255 254 253 253 252 251 250 249 248 247 246 245 244 244 245 245 246 245 245 245 243 241 239 238 238 236 235 232 232 236 240 243 241 237 236 238 238 236 234 235 238 241 244 247 250 252 252 255 262 269 275 287 292 282 272 271 276 279 280 279 277 273 270 268 266 264 263 262 260 258 258 257 256 254 250 246 242 239 237 237 237 239 241 245 250 255 258 260 262 262 262 262 264 266 268 269 270 269 269 269 269 270
257 255 254 253 252 252 251 249 248 248 247 246 245 244 245 245 246 246 244 244 243 243 241 240 239 238 235 234 232 232 234 238 241 240 236 235 240 243 238 234 234 236 239 242 245 247 248 249 250 252 253 261 278 283 284 279 277 275 274 273 274 274 272 270 270 270 268 266 264 261 259 258 257 256 254 252 249 245 241 239 238 238 239 242 245 250 255 258 260 261 261 261 262 263 265 267 268 268 268 268 268 269 270